DW6848 Weather Reports


time (UTC)temp
C
wind
direction
speed
KPH
gust
KPH
rain 1hr
cm
rain 24hr
cm
rain mn
cm
humidity
%
barometer
mb
20260509193013 27 214 1.6 6.4 0.00 0.00 0.00 46 1011.1
20260509191514 27 240 3.2 6.4 0.00 0.00 0.00 44 1011.2
20260509190016 27 160 0.0 4.8 0.00 0.00 0.00 44 1011.1
20260509184514 26 252 3.2 9.7 0.00 0.00 0.00 46 1011.2
20260509183013 27 243 0.0 11.3 0.00 0.00 0.00 49 1011.3
20260509181517 27 54 1.6 6.4 0.00 0.00 0.00 47 1011.5
20260509180013 26 125 0.0 6.4 0.00 0.00 0.00 52 1011.7
20260509174514 26 243 3.2 11.3 0.00 0.00 0.00 50 1011.9
20260509173011 26 359 0.0 4.8 0.00 0.00 0.00 51 1011.9
20260509171514 26 269 0.0 4.8 0.00 0.00 0.00 53 1011.9
20260509170013 25 359 0.0 6.4 0.00 0.00 0.00 56 1011.9
20260509164512 25 236 1.6 6.4 0.00 0.00 0.00 57 1011.8
20260509163019 24 270 0.0 9.7 0.00 0.00 0.00 61 1011.9
20260509161513 23 4 0.0 8.0 0.00 0.00 0.00 64 1011.9
20260509160012 23 267 0.0 6.4 0.00 0.00 0.00 67 1011.6
20260509154510 22 56 0.0 6.4 0.00 0.00 0.00 66 1011.5
20260509153012 22 1 1.6 4.8 0.00 0.00 0.00 70 1011.3
20260509151512 22 245 0.0 4.8 0.00 0.00 0.00 74 1011.4
20260509150019 21 231 0.0 9.7 0.00 0.00 0.00 76 1011.4
20260509144614 20 313 0.0 9.7 0.00 0.00 0.00 79 1011.6
20260509143019 19 251 3.2 6.4 0.00 0.00 0.00 84 1011.8
20260509141512 18 231 1.6 6.4 0.00 0.00 0.00 86 1012.0
20260509140012 18 216 1.6 6.4 0.00 0.00 0.00 87 1011.8
20260509134512 17 165 3.2 8.0 0.00 0.00 0.00 88 1011.5
20260509133011 17 165 1.6 9.7 0.00 0.00 0.00 89 1011.3
20260509131527 16 214 1.6 6.4 0.00 0.00 0.00 90 1011.3
20260509130022 16 167 3.2 8.0 0.00 0.00 0.00 91 1011.3
20260509124507 15 150 1.6 6.4 0.00 0.00 0.00 92 1011.3
20260509123011 15 155 0.0 4.8 0.00 0.00 0.00 93 1011.4
20260509121512 15 158 1.6 6.4 0.00 0.00 0.00 93 1011.4
20260509120010 14 152 1.6 6.4 0.00 0.00 0.00 94 1011.1
20260509114512 13 146 0.0 3.2 0.00 0.00 0.00 94 1011.0
20260509113010 13 150 0.0 0.0 0.00 0.00 0.00 95 1010.9
20260509111513 13 153 0.0 0.0 0.00 0.00 0.00 95 1010.9
20260509110012 13 151 0.0 0.0 0.00 0.00 0.00 94 1010.9
20260509104513 13 148 0.0 0.0 0.00 0.00 0.00 94 1010.8
20260509103016 13 163 0.0 0.0 0.00 0.00 0.00 93 1010.7
20260509101514 13 165 0.0 1.6 0.00 0.00 0.00 93 1010.6
20260509100021 13 165 0.0 1.6 0.00 0.00 0.00 93 1010.7
20260509094514 13 165 0.0 0.0 0.00 0.00 0.00 93 1010.7
20260509093014 13 157 0.0 0.0 0.00 0.00 0.00 94 1010.9
20260509091514 13 157 0.0 0.0 0.00 0.00 0.00 92 1010.7
20260509090018 13 157 0.0 0.0 0.00 0.00 0.00 91 1010.5
20260509084516 13 157 0.0 0.0 0.00 0.00 0.00 91 1010.0
20260509083014 14 157 0.0 0.0 0.00 0.00 0.00 90 1009.9
20260509081514 14 157 0.0 0.0 0.00 0.00 0.00 89 1010.1
20260509080023 15 157 0.0 0.0 0.00 0.00 0.00 88 1010.1
20260509074516 15 157 0.0 4.8 0.00 0.00 0.00 87 1010.4
20260509073015 15 171 0.0 3.2 0.00 0.00 0.00 87 1010.0
20260509071518 15 101 0.0 4.8 0.00 0.00 0.00 86 1010.2
20260509070015 15 227 0.0 3.2 0.00 0.00 0.00 86 1010.4
20260509064517 15 153 0.0 4.8 0.00 0.00 0.00 86 1009.9
20260509063020 15 153 0.0 4.8 0.00 0.00 0.00 86 1009.6
20260509061521 15 153 0.0 6.4 0.00 0.00 0.00 86 1010.6
20260509060022 15 155 0.0 1.6 0.00 0.00 0.00 86 1011.1
20260509054517 15 160 0.0 4.8 0.00 0.00 0.00 85 1011.3
20260509053020 15 162 0.0 0.0 0.00 0.00 0.00 85 1011.5
20260509051522 15 162 0.0 1.6 0.00 0.00 0.00 85 1011.4
20260509050021 15 161 0.0 1.6 0.00 0.00 0.00 83 1011.7
20260509044522 15 155 0.0 1.6 0.00 0.00 0.00 83 1012.3
20260509043020 16 155 0.0 1.6 0.00 0.00 0.00 83 1012.2
20260509041531 16 174 0.0 1.6 0.00 0.00 0.00 82 1012.0
20260509040023 16 166 0.0 0.0 0.00 0.00 0.00 81 1011.8
20260509034522 16 163 0.0 3.2 0.00 0.00 0.00 80 1011.5
20260509033006 16 148 0.0 4.8 0.00 0.00 0.00 79 1011.6
20260509031524 17 152 0.0 4.8 0.00 0.00 0.00 78 1011.4
20260509030023 17 148 0.0 4.8 0.00 0.00 0.00 77 1011.9
20260509024523 17 150 0.0 1.6 0.00 0.00 0.00 75 1011.9
20260509023022 18 149 0.0 0.0 0.00 0.00 0.00 74 1011.7
20260509021522 18 148 0.0 4.8 0.00 0.00 0.00 73 1011.3
20260509020025 18 150 0.0 3.2 0.00 0.00 0.00 72 1011.4
20260509014524 18 167 0.0 3.2 0.00 0.00 0.00 71 1011.3
20260509013027 19 186 0.0 3.2 0.00 0.00 0.00 69 1011.4
20260509011527 20 145 0.0 6.4 0.00 0.00 0.00 67 1011.3
20260509010036 20 168 0.0 4.8 0.00 0.00 0.00 66 1011.3
20260509004528 21 167 0.0 9.7 0.00 0.00 0.00 63 1011.2
20260509003023 21 177 0.0 4.8 0.00 0.00 0.00 61 1011.1
20260509001525 21 140 1.6 8.0 0.00 0.00 0.00 57 1010.9
20260509000022 22 168 3.2 11.3 0.00 0.00 0.00 55 1010.9
20260508234524 22 164 3.2 9.7 0.00 0.00 0.00 53 1011.1
20260508233023 22 156 1.6 9.7 0.00 0.00 0.00 53 1011.1
20260508231522 23 153 4.8 9.7 0.00 0.00 0.00 52 1011.2
20260508230032 23 250 3.2 9.7 0.00 0.00 0.00 51 1011.2
20260508224526 23 160 1.6 8.0 0.00 0.00 0.00 53 1011.3
20260508223019 23 154 0.0 11.3 0.00 0.00 0.00 51 1011.2
20260508221537 24 146 3.2 9.7 0.00 0.00 0.00 47 1011.5
20260508220020 23 165 1.6 16.1 0.00 0.00 0.00 48 1011.5
20260508214521 24 166 4.8 12.9 0.00 0.00 0.00 47 1011.4
20260508213024 25 180 1.6 9.7 0.00 0.00 0.00 46 1011.6
20260508211518 24 151 4.8 12.9 0.00 0.00 0.00 45 1011.9
20260508210020 24 138 4.8 14.5 0.00 0.00 0.00 46 1011.9
20260508204521 24 157 6.4 16.1 0.00 0.00 0.00 49 1012.1
20260508203019 23 200 3.2 12.9 0.00 0.00 0.00 45 1012.2
20260508201520 24 175 1.6 9.7 0.00 0.00 0.00 46 1012.5
20260508200020 24 8 1.6 8.0 0.00 0.00 0.00 52 1012.4
20260508194518 23 238 4.8 12.9 0.00 0.00 0.00 47 1012.8